Location: Czu?�w
(50.1404°N, 18.9919°E)
Time: 03:26:23
(UTC+00:00)

Cosmos 1825 Rocket - Pass Details

Date: 27 October 2020
Orbit: 603 x 631 km, 82.5° (Epoch: 24 November)

Event Time Altitude Azimuth Distance (km) Brightness Sun altitude
Rises 16:33:39 0° 346° (NNW) 2,932 7.1 -10.9°
Reaches altitude 10° 16:35:56 10° 342° (NNW) 2,016 6.3 -11.3°
Maximum altitude 16:40:18 56° 265° (W) 750 4.4 -12.0°
Drops below altitude 10° 16:44:36 10° 188° (S) 1,985 6.3 -12.7°
Sets 16:46:50 0° 184° (S) 2,881 7.1 -13.0°
